Simultaneous Nadir Overpasses (SNOs) Predictions

Prediction of SNOs between LANDSAT-8 and NOAA-19 Satellite Orbit:

Table of predicted SNOs for the next 14.0 days since TLE Epoch: 7/18/2020
Index Date (LANDSAT-8) Time (LANDSAT-8) Lat,Lon (LANDSAT-8) SZA (LANDSAT-8 ) Date (NOAA-19) Time (NOAA-19) Lat,Lon (NOAA-19) SZA (NOAA-19 ) Distance(km) Time Diff (sec)
1 07/19/2020 10:49:48 -79.83,-136.15 119.93 07/19/2020 10:49:37 -79.81,-136.04 119.95 3.26 11
2 07/19/2020 11:39:19 79.65, 30.14 59.81 07/19/2020 11:40:24 79.59, 33.66 60.07 70.87 65
3 07/21/2020 16:23:32 79.84, -39.48 60.51 07/21/2020 16:22:49 79.82, -39.38 60.49 3.20 43
4 07/21/2020 17:13:00 -79.81, 127.89 119.54 07/21/2020 17:13:54 -79.81, 127.93 119.51 0.89 54
5 07/23/2020 21:57:17 -79.85, 57.17 119.02 07/23/2020 21:56:11 -79.83, 57.19 119.06 2.14 66
6 07/23/2020 22:46:44 79.81,-135.47 60.94 07/23/2020 22:47:06 79.82,-135.40 60.96 1.51 22
7 07/26/2020 04:20:29 -79.83, -38.80 118.56 07/26/2020 04:20:28 -79.84, -38.90 118.56 2.39 1
8 07/28/2020 09:54:13 79.83, 57.79 61.96 07/28/2020 09:53:40 79.84, 57.86 61.96 2.07 33
9 07/28/2020 10:43:41 -79.80,-134.79 118.08 07/28/2020 10:44:44 -79.83,-134.71 118.03 3.11 63
10 07/30/2020 15:27:58 -79.85, 154.47 117.49 07/30/2020 15:27:01 -79.86, 154.48 117.50 1.11 57
